| time (UTC) | temp C | wind direction | speed KPH | gust KPH | rain 1hr cm | rain 24hr cm | rain mn cm | humidity % | barometer mb |
| 20260507000803 | 7 | 265 | 1.6 | 6.4 | 0.00 | 0.28 | 0.20 | 94 | 1010.9 |
| 20260507000303 | 7 | 292 | 1.6 | 4.8 | 0.00 | 0.28 | 0.20 | 94 | 1010.6 |
| 20260506235306 | 7 | 292 | 0.0 | 3.2 | 0.00 | 0.28 | 0.20 | 94 | 1010.1 |
| 20260506234803 | 7 | 292 | 1.6 | 3.2 | 0.00 | 0.28 | 0.20 | 94 | 1010.3 |
| 20260506234304 | 7 | 292 | 1.6 | 3.2 | 0.00 | 0.28 | 0.20 | 94 | 1010.0 |
| 20260506233303 | 7 | 292 | 0.0 | 3.2 | 0.00 | 0.28 | 0.20 | 94 | 1010.2 |
| 20260506232804 | 7 | 292 | 0.0 | 1.6 | 0.00 | 0.28 | 0.20 | 94 | 1010.3 |
| 20260506232306 | 7 | 292 | 1.6 | 4.8 | 0.00 | 0.28 | 0.20 | 94 | 1010.2 |
| 20260506231802 | 7 | 292 | 1.6 | 4.8 | 0.00 | 0.28 | 0.20 | 94 | 1010.2 |
| 20260506231301 | 7 | 292 | 1.6 | 4.8 | 0.00 | 0.28 | 0.20 | 94 | 1010.2 |
| 20260506230800 | 7 | 292 | 1.6 | 4.8 | 0.00 | 0.28 | 0.20 | 94 | 1010.1 |
| 20260506230301 | 7 | 292 | 1.6 | 4.8 | 0.00 | 0.28 | 0.20 | 94 | 1010.1 |
| 20260506225801 | 7 | 292 | 1.6 | 3.2 | 0.00 | 0.28 | 0.20 | 94 | 1010.1 |
| 20260506225301 | 7 | 292 | 1.6 | 4.8 | 0.00 | 0.28 | 0.20 | 94 | 1009.9 |
| 20260506224801 | 7 | 292 | 1.6 | 4.8 | 0.00 | 0.28 | 0.20 | 94 | 1010.0 |
| 20260506224300 | 7 | 292 | 1.6 | 4.8 | 0.00 | 0.28 | 0.20 | 94 | 1010.0 |
| 20260506223800 | 7 | 292 | 1.6 | 4.8 | 0.00 | 0.28 | 0.20 | 94 | 1010.1 |
| 20260506223259 | 7 | 300 | 1.6 | 4.8 | 0.00 | 0.28 | 0.20 | 94 | 1010.0 |
| 20260506222759 | 7 | 258 | 1.6 | 4.8 | 0.00 | 0.28 | 0.20 | 94 | 1010.0 |
| 20260506222256 | 7 | 244 | 0.0 | 3.2 | 0.00 | 0.28 | 0.20 | 94 | 1010.0 |
| 20260506221758 | 7 | 244 | 1.6 | 3.2 | 0.00 | 0.28 | 0.20 | 94 | 1009.8 |
| 20260506221259 | 7 | 244 | 1.6 | 3.2 | 0.00 | 0.28 | 0.20 | 94 | 1009.7 |
| 20260506220753 | 7 | 244 | 3.2 | 6.4 | 0.00 | 0.28 | 0.20 | 94 | 1009.8 |
| 20260506220253 | 7 | 244 | 3.2 | 6.4 | 0.00 | 0.28 | 0.20 | 94 | 1009.8 |
| 20260506215754 | 7 | 276 | 3.2 | 6.4 | 0.00 | 0.28 | 0.20 | 94 | 1009.8 |
| 20260506215253 | 7 | 256 | 3.2 | 6.4 | 0.00 | 0.28 | 0.20 | 94 | 1009.8 |
| 20260506214750 | 7 | 254 | 1.6 | 6.4 | 0.00 | 0.28 | 0.20 | 94 | 1009.7 |
| 20260506214252 | 7 | 246 | 1.6 | 6.4 | 0.00 | 0.28 | 0.20 | 94 | 1009.7 |
| 20260506213751 | 7 | 246 | 1.6 | 6.4 | 0.00 | 0.28 | 0.20 | 94 | 1009.7 |
| 20260506213251 | 7 | 259 | 1.6 | 4.8 | 0.00 | 0.28 | 0.20 | 94 | 1009.6 |
| 20260506212750 | 8 | 259 | 0.0 | 4.8 | 0.00 | 0.28 | 0.20 | 94 | 1009.6 |
| 20260506212250 | 8 | 259 | 1.6 | 3.2 | 0.00 | 0.28 | 0.20 | 94 | 1009.7 |
| 20260506211250 | 7 | 259 | 3.2 | 6.4 | 0.00 | 0.28 | 0.20 | 94 | 1009.8 |
| 20260506210751 | 8 | 266 | 1.6 | 4.8 | 0.00 | 0.28 | 0.20 | 94 | 1009.7 |
| 20260506210251 | 8 | 266 | 1.6 | 4.8 | 0.00 | 0.28 | 0.20 | 94 | 1009.7 |
| 20260506205752 | 8 | 266 | 1.6 | 4.8 | 0.00 | 0.28 | 0.20 | 94 | 1009.6 |
| 20260506205251 | 7 | 266 | 3.2 | 4.8 | 0.00 | 0.28 | 0.20 | 94 | 1009.6 |
| 20260506204750 | 7 | 257 | 3.2 | 6.4 | 0.00 | 0.28 | 0.20 | 94 | 1009.6 |
| 20260506204250 | 7 | 270 | 3.2 | 6.4 | 0.00 | 0.28 | 0.20 | 94 | 1009.7 |
| 20260506203752 | 7 | 259 | 1.6 | 6.4 | 0.00 | 0.28 | 0.20 | 94 | 1009.6 |
| 20260506202250 | 8 | 273 | 1.6 | 4.8 | 0.00 | 0.28 | 0.20 | 94 | 1009.5 |
| 20260506201751 | 8 | 273 | 3.2 | 6.4 | 0.00 | 0.28 | 0.20 | 94 | 1009.6 |
| 20260506201251 | 8 | 272 | 3.2 | 6.4 | 0.00 | 0.28 | 0.20 | 93 | 1009.5 |
| 20260506200750 | 8 | 287 | 1.6 | 4.8 | 0.00 | 0.28 | 0.20 | 93 | 1009.6 |
| 20260506195752 | 8 | 299 | 1.6 | 4.8 | 0.00 | 0.30 | 0.20 | 94 | 1009.5 |
| 20260506195250 | 8 | 299 | 1.6 | 4.8 | 0.00 | 0.33 | 0.20 | 94 | 1009.5 |
| 20260506194750 | 8 | 265 | 1.6 | 4.8 | 0.00 | 0.36 | 0.20 | 94 | 1009.6 |
| 20260506194250 | 8 | 263 | 1.6 | 6.4 | 0.00 | 0.36 | 0.20 | 93 | 1009.6 |
| 20260506193750 | 8 | 267 | 1.6 | 6.4 | 0.00 | 0.36 | 0.20 | 93 | 1009.7 |
| 20260506193250 | 8 | 308 | 1.6 | 4.8 | 0.00 | 0.36 | 0.20 | 94 | 1009.8 |
| 20260506192751 | 8 | 342 | 1.6 | 4.8 | 0.00 | 0.38 | 0.20 | 93 | 1009.7 |
| 20260506192250 | 8 | 342 | 1.6 | 6.4 | 0.00 | 0.38 | 0.20 | 94 | 1009.7 |
| 20260506191250 | 8 | 331 | 3.2 | 6.4 | 0.00 | 0.38 | 0.20 | 94 | 1009.7 |
| 20260506190251 | 8 | 280 | 3.2 | 6.4 | 0.00 | 0.38 | 0.20 | 94 | 1009.7 |
| 20260506185748 | 8 | 325 | 3.2 | 6.4 | 0.00 | 0.38 | 0.20 | 94 | 1009.6 |
| 20260506185249 | 8 | 320 | 3.2 | 8.0 | 0.00 | 0.38 | 0.20 | 94 | 1009.6 |
| 20260506184749 | 8 | 338 | 3.2 | 8.0 | 0.00 | 0.38 | 0.20 | 94 | 1009.6 |
| 20260506184247 | 8 | 336 | 3.2 | 4.8 | 0.00 | 0.38 | 0.20 | 94 | 1009.7 |
| 20260506183746 | 8 | 343 | 3.2 | 6.4 | 0.00 | 0.38 | 0.20 | 94 | 1009.6 |
| 20260506183247 | 8 | 349 | 3.2 | 6.4 | 0.00 | 0.38 | 0.20 | 94 | 1009.6 |
| 20260506182247 | 8 | 313 | 1.6 | 4.8 | 0.00 | 0.38 | 0.20 | 94 | 1009.8 |
| 20260506181747 | 8 | 330 | 1.6 | 4.8 | 0.00 | 0.38 | 0.20 | 94 | 1009.8 |
| 20260506181246 | 8 | 325 | 1.6 | 4.8 | 0.00 | 0.38 | 0.20 | 94 | 1009.9 |
| 20260506180747 | 7 | 312 | 1.6 | 4.8 | 0.00 | 0.38 | 0.20 | 94 | 1010.1 |
| 20260506180246 | 7 | 323 | 3.2 | 4.8 | 0.00 | 0.38 | 0.20 | 94 | 1010.4 |
| 20260506175747 | 7 | 288 | 3.2 | 6.4 | 0.00 | 0.38 | 0.20 | 94 | 1010.5 |
| 20260506175247 | 7 | 336 | 3.2 | 8.0 | 0.00 | 0.38 | 0.20 | 94 | 1010.5 |
| 20260506174744 | 8 | 293 | 3.2 | 8.0 | 0.00 | 0.38 | 0.20 | 94 | 1010.4 |
| 20260506174245 | 8 | 344 | 3.2 | 8.0 | 0.00 | 0.38 | 0.20 | 94 | 1010.3 |
| 20260506173744 | 8 | 342 | 1.6 | 4.8 | 0.00 | 0.38 | 0.20 | 94 | 1010.3 |
| 20260506173246 | 8 | 337 | 1.6 | 4.8 | 0.00 | 0.38 | 0.20 | 94 | 1010.3 |
| 20260506172745 | 8 | 309 | 1.6 | 4.8 | 0.00 | 0.38 | 0.20 | 94 | 1010.3 |
| 20260506172245 | 8 | 315 | 1.6 | 4.8 | 0.00 | 0.38 | 0.20 | 94 | 1010.3 |
| 20260506171745 | 8 | 275 | 1.6 | 3.2 | 0.00 | 0.38 | 0.20 | 94 | 1010.3 |
| 20260506171244 | 8 | 275 | 1.6 | 6.4 | 0.00 | 0.38 | 0.20 | 94 | 1010.4 |
| 20260506170743 | 8 | 274 | 1.6 | 6.4 | 0.00 | 0.38 | 0.20 | 94 | 1010.4 |
| 20260506170242 | 8 | 308 | 3.2 | 6.4 | 0.00 | 0.38 | 0.20 | 94 | 1010.2 |
| 20260506165742 | 8 | 294 | 3.2 | 6.4 | 0.00 | 0.38 | 0.20 | 94 | 1010.3 |
| 20260506165242 | 8 | 333 | 3.2 | 6.4 | 0.00 | 0.38 | 0.20 | 94 | 1010.1 |
| 20260506164742 | 8 | 346 | 3.2 | 6.4 | 0.03 | 0.38 | 0.20 | 94 | 1010.5 |
| 20260506163742 | 8 | 283 | 3.2 | 6.4 | 0.03 | 0.38 | 0.20 | 94 | 1010.2 |
| 20260506163240 | 8 | 327 | 3.2 | 8.0 | 0.05 | 0.38 | 0.20 | 94 | 1010.3 |
| 20260506162740 | 8 | 330 | 3.2 | 8.0 | 0.05 | 0.38 | 0.20 | 94 | 1010.4 |
| 20260506162240 | 8 | 311 | 3.2 | 6.4 | 0.05 | 0.38 | 0.20 | 94 | 1010.5 |
| 20260506161741 | 8 | 325 | 3.2 | 6.4 | 0.05 | 0.38 | 0.20 | 94 | 1010.5 |
| 20260506161240 | 8 | 268 | 3.2 | 6.4 | 0.05 | 0.38 | 0.20 | 94 | 1010.6 |
| 20260506160740 | 8 | 312 | 3.2 | 4.8 | 0.05 | 0.38 | 0.20 | 94 | 1010.5 |
| 20260506160240 | 8 | 284 | 1.6 | 4.8 | 0.05 | 0.38 | 0.20 | 94 | 1010.4 |
| 20260506155740 | 8 | 284 | 1.6 | 4.8 | 0.05 | 0.38 | 0.20 | 94 | 1010.3 |
| 20260506155237 | 8 | 284 | 3.2 | 4.8 | 0.05 | 0.38 | 0.20 | 94 | 1010.4 |
| 20260506154737 | 8 | 317 | 3.2 | 4.8 | 0.03 | 0.36 | 0.18 | 94 | 1010.4 |
| 20260506153237 | 8 | 349 | 3.2 | 6.4 | 0.00 | 0.33 | 0.15 | 94 | 1010.4 |
| 20260506152736 | 8 | 307 | 3.2 | 6.4 | 0.00 | 0.33 | 0.15 | 94 | 1010.5 |
| 20260506152237 | 8 | 321 | 3.2 | 8.0 | 0.00 | 0.33 | 0.15 | 94 | 1010.4 |
| 20260506151737 | 8 | 320 | 3.2 | 8.0 | 0.00 | 0.33 | 0.15 | 94 | 1010.5 |
| 20260506151236 | 8 | 319 | 1.6 | 4.8 | 0.00 | 0.33 | 0.15 | 94 | 1010.6 |
| 20260506150234 | 8 | 279 | 1.6 | 8.0 | 0.00 | 0.33 | 0.15 | 94 | 1010.5 |
| 20260506145733 | 8 | 272 | 1.6 | 6.4 | 0.00 | 0.33 | 0.15 | 94 | 1010.7 |
| 20260506145230 | 9 | 300 | 1.6 | 6.4 | 0.00 | 0.33 | 0.15 | 94 | 1010.7 |
| 20260506144729 | 9 | 338 | 0.0 | 3.2 | 0.00 | 0.33 | 0.15 | 94 | 1011.0 |
| 20260506144229 | 9 | 338 | 1.6 | 3.2 | 0.00 | 0.33 | 0.15 | 94 | 1010.9 |
| 20260506143729 | 9 | 0 | 1.6 | 4.8 | 0.00 | 0.33 | 0.15 | 94 | 1010.9 |
| 20260506143231 | 9 | 0 | 1.6 | 4.8 | 0.03 | 0.33 | 0.15 | 94 | 1010.9 |
| 20260506142730 | 8 | 350 | 1.6 | 4.8 | 0.03 | 0.33 | 0.15 | 94 | 1011.1 |
| 20260506141229 | 9 | 350 | 1.6 | 3.2 | 0.05 | 0.33 | 0.15 | 94 | 1011.0 |
| 20260506140728 | 9 | 349 | 1.6 | 3.2 | 0.05 | 0.33 | 0.15 | 94 | 1011.0 |
| 20260506140228 | 9 | 355 | 1.6 | 3.2 | 0.05 | 0.33 | 0.15 | 94 | 1011.0 |
| 20260506135728 | 9 | 355 | 1.6 | 4.8 | 0.05 | 0.33 | 0.15 | 94 | 1011.0 |
| 20260506135228 | 9 | 5 | 3.2 | 4.8 | 0.05 | 0.33 | 0.15 | 94 | 1011.0 |
| 20260506134728 | 9 | 304 | 3.2 | 6.4 | 0.05 | 0.33 | 0.15 | 94 | 1011.4 |
| 20260506134227 | 9 | 336 | 1.6 | 6.4 | 0.05 | 0.33 | 0.15 | 94 | 1011.0 |
| 20260506133728 | 9 | 345 | 1.6 | 4.8 | 0.05 | 0.33 | 0.15 | 94 | 1011.0 |
| 20260506133228 | 9 | 338 | 1.6 | 8.0 | 0.03 | 0.30 | 0.15 | 94 | 1011.1 |
| 20260506131728 | 9 | 338 | 3.2 | 9.7 | 0.00 | 0.28 | 0.10 | 94 | 1011.6 |
| 20260506131228 | 9 | 36 | 1.6 | 4.8 | 0.00 | 0.28 | 0.10 | 94 | 1011.5 |
| 20260506130728 | 9 | 37 | 0.0 | 4.8 | 0.00 | 0.28 | 0.10 | 94 | 1011.3 |
| 20260506130228 | 10 | 345 | 1.6 | 3.2 | 0.00 | 0.28 | 0.10 | 94 | 1011.5 |
| 20260506125228 | 10 | 345 | 1.6 | 3.2 | 0.00 | 0.28 | 0.10 | 94 | 1011.9 |
| 20260506124727 | 10 | 345 | 0.0 | 3.2 | 0.00 | 0.28 | 0.10 | 94 | 1011.6 |
| 20260506123728 | 10 | 345 | 0.0 | 3.2 | 0.00 | 0.28 | 0.10 | 94 | 1011.6 |
| 20260506123229 | 10 | 345 | 0.0 | 3.2 | 0.00 | 0.28 | 0.10 | 94 | 1011.7 |
| 20260506122728 | 10 | 345 | 0.0 | 3.2 | 0.00 | 0.28 | 0.10 | 94 | 1011.9 |
| 20260506122229 | 10 | 345 | 1.6 | 4.8 | 0.00 | 0.28 | 0.10 | 94 | 1011.6 |
| 20260506121728 | 10 | 345 | 1.6 | 4.8 | 0.00 | 0.28 | 0.10 | 94 | 1011.6 |
| 20260506121228 | 10 | 319 | 1.6 | 4.8 | 0.00 | 0.28 | 0.10 | 94 | 1011.8 |
| 20260506120727 | 10 | 348 | 1.6 | 4.8 | 0.00 | 0.28 | 0.10 | 94 | 1012.1 |
| 20260506120227 | 10 | 337 | 3.2 | 6.4 | 0.00 | 0.28 | 0.10 | 94 | 1012.2 |
| 20260506115728 | 10 | 38 | 3.2 | 6.4 | 0.00 | 0.28 | 0.10 | 94 | 1012.0 |
| 20260506114728 | 10 | 351 | 1.6 | 3.2 | 0.00 | 0.28 | 0.10 | 94 | 1011.7 |
| 20260506114229 | 10 | 0 | 1.6 | 3.2 | 0.00 | 0.28 | 0.10 | 94 | 1011.7 |
| 20260506113728 | 10 | 0 | 1.6 | 3.2 | 0.00 | 0.28 | 0.10 | 94 | 1011.6 |
| 20260506113227 | 10 | 0 | 1.6 | 6.4 | 0.00 | 0.28 | 0.10 | 94 | 1011.6 |
| 20260506112728 | 10 | 0 | 1.6 | 6.4 | 0.00 | 0.28 | 0.10 | 94 | 1011.6 |
| 20260506110723 | 10 | 5 | 0.0 | 3.2 | 0.00 | 0.28 | 0.10 | 94 | 1011.7 |
| 20260506110223 | 10 | 5 | 0.0 | 3.2 | 0.00 | 0.28 | 0.10 | 95 | 1011.5 |
| 20260506104721 | 10 | 5 | 1.6 | 3.2 | 0.00 | 0.28 | 0.10 | 94 | 1011.6 |
| 20260506104223 | 10 | 5 | 1.6 | 3.2 | 0.00 | 0.28 | 0.10 | 94 | 1011.6 |
| 20260506103222 | 10 | 5 | 0.0 | 3.2 | 0.00 | 0.28 | 0.10 | 94 | 1011.7 |
| 20260506102721 | 10 | 5 | 1.6 | 4.8 | 0.00 | 0.28 | 0.10 | 94 | 1011.5 |
| 20260506102222 | 10 | 5 | 1.6 | 4.8 | 0.00 | 0.28 | 0.10 | 94 | 1011.6 |
| 20260506101722 | 10 | 331 | 1.6 | 3.2 | 0.00 | 0.28 | 0.10 | 94 | 1011.8 |
| 20260506101222 | 10 | 331 | 1.6 | 4.8 | 0.00 | 0.28 | 0.10 | 94 | 1011.9 |
| 20260506100721 | 10 | 338 | 1.6 | 4.8 | 0.00 | 0.28 | 0.10 | 94 | 1011.8 |
| 20260506100221 | 11 | 337 | 1.6 | 4.8 | 0.00 | 0.28 | 0.10 | 94 | 1011.9 |
| 20260506095722 | 11 | 57 | 1.6 | 8.0 | 0.00 | 0.28 | 0.10 | 94 | 1011.6 |
| 20260506095220 | 11 | 61 | 1.6 | 8.0 | 0.00 | 0.28 | 0.10 | 95 | 1011.6 |
| 20260506094721 | 11 | 355 | 1.6 | 4.8 | 0.00 | 0.28 | 0.10 | 95 | 1012.0 |
| 20260506094221 | 11 | 355 | 1.6 | 4.8 | 0.00 | 0.28 | 0.10 | 94 | 1011.9 |
| 20260506093721 | 11 | 15 | 1.6 | 4.8 | 0.00 | 0.28 | 0.10 | 95 | 1011.8 |
| 20260506092721 | 11 | 5 | 1.6 | 3.2 | 0.00 | 0.28 | 0.10 | 95 | 1011.8 |
| 20260506091221 | 11 | 5 | 1.6 | 4.8 | 0.00 | 0.28 | 0.10 | 94 | 1011.7 |
| 20260506090721 | 11 | 5 | 1.6 | 6.4 | 0.00 | 0.28 | 0.10 | 94 | 1011.5 |
| 20260506090219 | 11 | 63 | 1.6 | 6.4 | 0.00 | 0.28 | 0.10 | 94 | 1011.7 |
| 20260506085719 | 11 | 311 | 1.6 | 3.2 | 0.00 | 0.28 | 0.10 | 94 | 1011.9 |
| 20260506085219 | 11 | 311 | 1.6 | 3.2 | 0.00 | 0.28 | 0.10 | 95 | 1011.7 |
| 20260506084721 | 11 | 311 | 0.0 | 3.2 | 0.00 | 0.28 | 0.10 | 94 | 1012.3 |
| 20260506084220 | 11 | 311 | 0.0 | 1.6 | 0.00 | 0.28 | 0.10 | 94 | 1011.9 |
| 20260506083719 | 11 | 311 | 0.0 | 1.6 | 0.00 | 0.28 | 0.10 | 94 | 1011.6 |
| 20260506083219 | 11 | 311 | 0.0 | 3.2 | 0.00 | 0.28 | 0.10 | 94 | 1011.9 |
| 20260506082719 | 11 | 311 | 1.6 | 3.2 | 0.00 | 0.28 | 0.10 | 94 | 1012.2 |
| 20260506082218 | 11 | 311 | 1.6 | 3.2 | 0.00 | 0.28 | 0.10 | 94 | 1012.1 |
| 20260506081718 | 12 | 305 | 1.6 | 6.4 | 0.00 | 0.28 | 0.10 | 94 | 1012.3 |
| 20260506081218 | 11 | 311 | 1.6 | 6.4 | 0.00 | 0.28 | 0.10 | 94 | 1012.5 |
| 20260506080717 | 11 | 107 | 0.0 | 3.2 | 0.00 | 0.28 | 0.10 | 94 | 1011.9 |
| 20260506073216 | 12 | 107 | 1.6 | 3.2 | 0.00 | 0.28 | 0.10 | 94 | 1011.3 |
| 20260506072715 | 12 | 107 | 0.0 | 3.2 | 0.00 | 0.28 | 0.10 | 94 | 1011.7 |
| 20260506072215 | 12 | 107 | 0.0 | 1.6 | 0.00 | 0.28 | 0.10 | 94 | 1011.5 |
| 20260506071715 | 12 | 107 | 0.0 | 0.0 | 0.00 | 0.28 | 0.10 | 94 | 1011.4 |
| 20260506071215 | 12 | 107 | 0.0 | 1.6 | 0.00 | 0.28 | 0.10 | 94 | 1011.4 |
| 20260506070715 | 12 | 107 | 1.6 | 3.2 | 0.00 | 0.28 | 0.10 | 94 | 1011.6 |
| 20260506070215 | 12 | 107 | 1.6 | 3.2 | 0.00 | 0.28 | 0.10 | 94 | 1011.7 |
| 20260506061214 | 12 | 107 | 0.0 | 1.6 | 0.00 | 0.28 | 0.10 | 93 | 1011.7 |
| 20260506050712 | 12 | 108 | 1.6 | 4.8 | 0.10 | 0.28 | 0.10 | 92 | 1012.2 |
| 20260506050211 | 12 | 108 | 1.6 | 4.8 | 0.10 | 0.28 | 0.10 | 92 | 1012.1 |
| 20260506043711 | 12 | 46 | 1.6 | 3.2 | 0.10 | 0.23 | 0.05 | 90 | 1012.0 |
| 20260506043210 | 12 | 46 | 1.6 | 3.2 | 0.10 | 0.23 | 0.05 | 90 | 1011.4 |
| 20260506042710 | 12 | 46 | 1.6 | 3.2 | 0.10 | 0.23 | 0.05 | 90 | 1011.9 |
| 20260506042208 | 12 | 46 | 1.6 | 4.8 | 0.10 | 0.20 | 0.03 | 90 | 1011.8 |
| 20260506041208 | 12 | 31 | 3.2 | 14.5 | 0.08 | 0.18 | 0.00 | 89 | 1012.1 |
| 20260506040209 | 13 | 5 | 1.6 | 6.4 | 0.08 | 0.18 | 0.00 | 89 | 1012.3 |
| 20260506035707 | 13 | 278 | 0.0 | 3.2 | 0.05 | 0.15 | 0.15 | 89 | 1012.1 |
| 20260506035207 | 13 | 278 | 1.6 | 4.8 | 0.05 | 0.15 | 0.15 | 89 | 1011.6 |
| 20260506034705 | 13 | 278 | 3.2 | 12.9 | 0.05 | 0.15 | 0.15 | 90 | 1011.4 |
| 20260506034205 | 13 | 246 | 4.8 | 12.9 | 0.03 | 0.13 | 0.13 | 90 | 1011.3 |
| 20260506033705 | 13 | 338 | 6.4 | 14.5 | 0.03 | 0.13 | 0.13 | 90 | 1011.1 |
| 20260506033205 | 14 | 262 | 4.8 | 17.7 | 0.03 | 0.13 | 0.13 | 91 | 1010.7 |
| 20260506032706 | 14 | 331 | 3.2 | 17.7 | 0.03 | 0.13 | 0.13 | 92 | 1010.6 |
| 20260506032206 | 14 | 325 | 1.6 | 8.0 | 0.00 | 0.10 | 0.10 | 92 | 1010.6 |
| 20260506031705 | 14 | 9 | 1.6 | 8.0 | 0.00 | 0.10 | 0.10 | 92 | 1010.1 |
| 20260506031206 | 14 | 342 | 1.6 | 4.8 | 0.00 | 0.10 | 0.10 | 92 | 1010.2 |
| 20260506030705 | 14 | 342 | 1.6 | 4.8 | 0.00 | 0.10 | 0.10 | 91 | 1010.1 |
| 20260506030206 | 14 | 9 | 1.6 | 6.4 | 0.00 | 0.10 | 0.10 | 91 | 1010.1 |
| 20260506025706 | 14 | 5 | 1.6 | 6.4 | 0.00 | 0.10 | 0.10 | 91 | 1010.2 |
| 20260506025205 | 14 | 5 | 0.0 | 4.8 | 0.00 | 0.10 | 0.10 | 91 | 1010.2 |
| 20260506024206 | 14 | 9 | 0.0 | 4.8 | 0.00 | 0.10 | 0.10 | 91 | 1010.1 |
| 20260506023706 | 14 | 9 | 0.0 | 4.8 | 0.00 | 0.10 | 0.10 | 91 | 1010.1 |
| 20260506023206 | 14 | 15 | 0.0 | 0.0 | 0.00 | 0.10 | 0.10 | 90 | 1010.1 |
| 20260506022705 | 14 | 15 | 0.0 | 0.0 | 0.00 | 0.10 | 0.10 | 90 | 1010.4 |
| 20260506022208 | 14 | 15 | 0.0 | 3.2 | 0.00 | 0.10 | 0.10 | 90 | 1010.0 |
| 20260506021706 | 14 | 15 | 3.2 | 6.4 | 0.00 | 0.10 | 0.10 | 90 | 1010.2 |
| 20260506021206 | 14 | 15 | 3.2 | 6.4 | 0.00 | 0.10 | 0.10 | 90 | 1010.3 |
| 20260506020707 | 15 | 318 | 1.6 | 6.4 | 0.00 | 0.10 | 0.10 | 90 | 1010.3 |
| 20260506020206 | 15 | 355 | 0.0 | 4.8 | 0.00 | 0.10 | 0.10 | 90 | 1010.1 |
| 20260506015706 | 15 | 355 | 0.0 | 0.0 | 0.00 | 0.10 | 0.10 | 90 | 1010.1 |
| 20260506015206 | 15 | 355 | 0.0 | 1.6 | 0.00 | 0.10 | 0.10 | 89 | 1010.0 |
| 20260506014706 | 15 | 355 | 0.0 | 1.6 | 0.00 | 0.10 | 0.10 | 89 | 1010.0 |
| 20260506014206 | 15 | 355 | 0.0 | 3.2 | 0.00 | 0.10 | 0.10 | 89 | 1009.6 |
| 20260506013707 | 15 | 355 | 0.0 | 3.2 | 0.00 | 0.10 | 0.10 | 89 | 1009.5 |
| 20260506013206 | 15 | 355 | 0.0 | 1.6 | 0.00 | 0.10 | 0.10 | 89 | 1009.4 |
| 20260506012707 | 15 | 355 | 0.0 | 0.0 | 0.00 | 0.10 | 0.10 | 89 | 1009.4 |
| 20260506012206 | 15 | 355 | 0.0 | 3.2 | 0.00 | 0.10 | 0.10 | 89 | 1009.5 |
| 20260506011706 | 15 | 355 | 1.6 | 4.8 | 0.00 | 0.10 | 0.10 | 89 | 1009.3 |
| 20260506011205 | 15 | 355 | 1.6 | 4.8 | 0.00 | 0.10 | 0.10 | 89 | 1009.4 |
| 20260506010706 | 15 | 355 | 1.6 | 3.2 | 0.00 | 0.10 | 0.10 | 88 | 1009.5 |
| 20260506010205 | 15 | 355 | 1.6 | 4.8 | 0.00 | 0.10 | 0.10 | 88 | 1009.4 |
| 20260506005705 | 15 | 355 | 3.2 | 6.4 | 0.00 | 0.10 | 0.10 | 88 | 1009.4 |
| 20260506005205 | 15 | 355 | 3.2 | 6.4 | 0.00 | 0.10 | 0.10 | 87 | 1009.3 |
| 20260506004204 | 16 | 355 | 1.6 | 4.8 | 0.00 | 0.10 | 0.10 | 85 | 1009.3 |
| 20260506003705 | 16 | 355 | 3.2 | 6.4 | 0.00 | 0.10 | 0.10 | 84 | 1009.2 |
| 20260506003201 | 16 | 355 | 3.2 | 6.4 | 0.00 | 0.10 | 0.10 | 83 | 1009.1 |
| 20260506002700 | 16 | 106 | 1.6 | 4.8 | 0.00 | 0.10 | 0.10 | 82 | 1009.1 |
| 20260506002159 | 17 | 107 | 1.6 | 3.2 | 0.00 | 0.10 | 0.10 | 80 | 1009.2 |
| 20260506001659 | 17 | 108 | 0.0 | 4.8 | 0.00 | 0.10 | 0.10 | 78 | 1009.1 |
| 20260506001159 | 17 | 108 | 1.6 | 4.8 | 0.00 | 0.10 | 0.10 | 76 | 1009.0 |